[[{"header":{"parameterUnit":"m.s-1","parameterCategory":1,"la1":30.2991,"la2":30.254,"lo1":-89.0895,"lo2":-89.0444,"dy":0.0017,"dx":0.0017,"nx":28,"ny":28,"refTime":"2025-05-29T21:00:00:Z","depth":0,"parameterNumber":2,"parameterNumberName":"U-component_of_WINDS"},"data":[0,0,0,0,0,0,0,0,0,0,0,0,0,0,0,0,0,0,0,0,0,0,0,0,0,0,0,0,0,0,0,0,0,0,0,0,0,0,0,0,0,0,0,0,0,0,0,0,0,0,0,0,0,0,0,0,0,0,0.6984,0.6984,0,0.7034,0.7035,0.7035,0.7081,0.7081,0.7082,0.7082,0.7135,0.7136,0.7136,0,0,0,0,0,0,0,0,0,0,0,0,0,0.6928,0.6929,0.6984,0.6984,0.6985,0.7034,0.7035,0.7035,0.7081,0.7081,0.7082,0.7083,0.7134,0.7135,0.7136,0,0,0,0,0,0,0,0,0,0,0,0,0,0.6963,0.6929,0.6984,0.7014,0.7017,0.7034,0.7035,0.7036,0.7081,0.7081,0.7082,0.7083,0.7134,0.7135,0.7137,0.7129,0,0,0.7141,0.7141,0,0,0,0,0,0,0,0,0.6961,0.6965,0.7009,0.7012,0.7015,0.7052,0.7034,0.7067,0.708,0.7056,0.7082,0.7083,0.7107,0.711,0.7118,0.7131,0.7133,0.7141,0.7142,0.7142,0.7143,0,0,0,0,0,0,0,0.6958,0.6963,0.7004,0.7009,0.7013,0.7025,0.7031,0.7041,0.7076,0.7058,0.7062,0.7067,0.7109,0.7116,0.7119,0.7134,0.7141,0.7142,0.7143,0.7143,0.7144,0.7143,0,0,0,0,0,0,0.6951,0.6961,0.7002,0.7005,0.6989,0.7025,0.7032,0.7039,0.7076,0.7083,0.7066,0.7069,0.7114,0.7118,0.7121,0.7115,0.7142,0.7143,0.7144,0.7145,0.7144,0.7143,0,0,0,0,0,0,0.695,0.6955,0.7,0.6984,0.6991,0.7025,0.7034,0.704,0.7048,0.7082,0.7089,0.7068,0.7115,0.712,0.7127,0.7117,0.7144,0.7145,0.7146,0.7144,0.7143,0.7101,0,0,0,0,0,0,0.6948,0.6954,0.6951,0.6984,0.6991,0.7004,0.7033,0.704,0.705,0.7054,0.7086,0.7092,0.7116,0.7124,0.7128,0.712,0.7146,0.7147,0.7145,0.7144,0.7103,0.7098,0.7094,0,0,0,0,0,0.6946,0.6937,0.695,0.6955,0.6988,0.7003,0.7008,0.7035,0.7049,0.7047,0.7069,0.7091,0.7118,0.7125,0.7129,0.7121,0.7147,0.7146,0.7144,0.7105,0.7099,0.7094,0,0,0,0,0,0,0.6902,0.6942,0.6957,0.6958,0.6977,0.7011,0.7008,0.7028,0.7044,0.7047,0.7081,0.7088,0.7091,0.7107,0.7114,0.7115,0.7136,0.7135,0.7105,0.7099,0.7095,0.7091,0.7147,0,0,0,0,0,0.6893,0.6901,0.6936,0.6933,0.6942,0.6973,0.6981,0.7001,0.7022,0.703,0.7053,0.7073,0.7086,0.7094,0.7108,0.7106,0.7114,0.7103,0.7098,0.7094,0.7093,0.7094,0.7089,0.7137,0.7137,0.7137,0,0,0.6873,0.6896,0.6899,0.6925,0.6942,0.695,0.698,0.6988,0.6994,0.7031,0.7039,0.7057,0.7081,0.7084,0.7086,0.7097,0.7082,0.7092,0.7089,0.709,0.7091,0.7087,0.7083,0.7136,0.7136,0.7136,0,0,0.6842,0.6859,0.686,0.6876,0.6901,0.6922,0.6922,0.6954,0.6966,0.6975,0.7003,0.7012,0.7034,0.705,0.7061,0.7036,0.7057,0.704,0.7016,0.7017,0.7013,0.701,0.7001,0.6997,0.7039,0.7039,0.7039,0,0.6814,0.6828,0.6857,0.6863,0.6874,0.6908,0.6909,0.6923,0.6952,0.6959,0.6971,0.6999,0.7018,0.7025,0.7019,0.7027,0.7028,0.7036,0.7011,0.7008,0.7006,0.6998,0.6994,0.7036,0.7037,0.7037,0.7037,0,0.6793,0.6802,0.6799,0.6825,0.6836,0.6839,0.687,0.6877,0.6896,0.6916,0.6925,0.6949,0.6968,0.6971,0.699,0.6981,0.6987,0.7005,0.7025,0.6998,0.6991,0.6988,0.7033,0.7034,0.7035,0.7035,0,0,0.6734,0.6778,0.6776,0.6789,0.6819,0.6827,0.6832,0.6851,0.6857,0.6876,0.6881,0.6899,0.6915,0.6928,0.6949,0.6949,0.6928,0.6966,0.6968,0.6958,0.692,0.6906,0.6902,0.6942,0.6942,0.6941,0.6918,0,0.6708,0.6719,0.6746,0.6748,0.6757,0.679,0.6795,0.6814,0.6833,0.6844,0.6865,0.6877,0.6898,0.6906,0.6908,0.693,0.6921,0.6932,0.6947,0.6948,0.694,0.6899,0.6885,0.6861,0.6915,0.6915,0.6915,0,0.6678,0.6695,0.6698,0.6729,0.6733,0.6737,0.6757,0.6766,0.6789,0.6803,0.6817,0.6841,0.6848,0.6868,0.6879,0.6886,0.6894,0.6906,0.6906,0.6908,0.6929,0.69,0.6855,0.6851,0.6911,0.6911,0.6911,0,0.6636,0.6659,0.6664,0.6673,0.6709,0.6711,0.6726,0.675,0.6759,0.6777,0.6784,0.6802,0.6812,0.6825,0.6853,0.6865,0.6861,0.6883,0.6873,0.6872,0.687,0.687,0.6826,0.6876,0.6876,0.6876,0.6876,0,0.6603,0.6604,0.6645,0.6648,0.665,0.6682,0.6683,0.6701,0.6722,0.6729,0.6759,0.6765,0.6802,0.6812,0.6834,0.684,0.6845,0.6856,0.6862,0.6853,0.6852,0.6859,0.6861,0.6875,0.6875,0.6876,0.6876,0,0.6555,0.6583,0.659,0.6624,0.6632,0.6632,0.6661,0.6665,0.6686,0.6695,0.6699,0.6732,0.6746,0.6776,0.6798,0.6813,0.6813,0.6824,0.6805,0.6809,0.6797,0.6798,0.6756,0.6752,0.6804,0.6804,0.6803,0,0.6532,0.6534,0.6567,0.6574,0.6588,0.6599,0.6609,0.664,0.665,0.6676,0.6677,0.6694,0.6709,0.673,0.6756,0.6774,0.6785,0.6769,0.6787,0.6779,0.6784,0.6783,0.6784,0.6764,0.6763,0.6763,0.6762,0,0.6489,0.6503,0.6516,0.6534,0.6545,0.6561,0.6578,0.6583,0.6618,0.6627,0.6642,0.6654,0.6676,0.6693,0.6714,0.673,0.6752,0.6756,0.6755,0.6746,0.6735,0.6741,0.6794,0.6757,0.6757,0.6758,0.6758,0.6758,0.6453,0.6456,0.648,0.6494,0.651,0.6526,0.6531,0.6553,0.6566,0.6587,0.6605,0.6618,0.6642,0.6672,0.6687,0.6698,0.6709,0.6707,0.6706,0.6705,0.6702,0.6734,0.6702,0.6702,0.6703,0.6703,0.6703,0,0.6411,0.6428,0.6441,0.6464,0.6475,0.6495,0.6515,0.6523,0.6534,0.6554,0.6568,0.6586,0.6602,0.6629,0.6647,0.6651,0.6661,0.6655,0.6654,0.6658,0.6691,0.669,0.6646,0.6646,0.6646,0.6646,0.6646,0.6646,0.639,0.6396,0.6413,0.6427,0.6444,0.6457,0.6467,0.6482,0.6498,0.6516,0.6529,0.6547,0.657,0.659,0.6606,0.6614,0.6619,0.6609,0.662,0.665,0.6655,0.6661,0.666,0.661,0.661,0.6586,0.6585,0.6585]},{"header":{"parameterUnit":"m.s-1","parameterCategory":1,"la1":30.2991,"la2":30.254,"lo1":-89.0895,"lo2":-89.0444,"dy":0.0017,"dx":0.0017,"nx":28,"ny":28,"refTime":"2025-05-29T21:00:00:Z","depth":0,"parameterNumber":3,"parameterNumberName":"V-component_of_WINDS"},"data":[0,0,0,0,0,0,0,0,0,0,0,0,0,0,0,0,0,0,0,0,0,0,0,0,0,0,0,0,0,0,0,0,0,0,0,0,0,0,0,0,0,0,0,0,0,0,0,0,0,0,0,0,0,0,0,0,0,0,-0.4741,-0.4741,0,-0.474,-0.474,-0.474,-0.4732,-0.4732,-0.4732,-0.4732,-0.4731,-0.4731,-0.4731,0,0,0,0,0,0,0,0,0,0,0,0,0,-0.4738,-0.4738,-0.4741,-0.4741,-0.4741,-0.474,-0.474,-0.474,-0.4732,-0.4732,-0.4732,-0.4732,-0.4731,-0.4731,-0.4731,0,0,0,0,0,0,0,0,0,0,0,0,0,-0.4739,-0.4739,-0.4741,-0.4737,-0.4737,-0.474,-0.474,-0.474,-0.4732,-0.4732,-0.4732,-0.4732,-0.4731,-0.4731,-0.4731,-0.4739,0,0,-0.4732,-0.4732,0,0,0,0,0,0,0,0,-0.4739,-0.4739,-0.4738,-0.4738,-0.4737,-0.4736,-0.4739,-0.474,-0.4732,-0.4734,-0.4732,-0.4731,-0.4733,-0.4733,-0.4733,-0.4739,-0.4739,-0.4732,-0.4732,-0.4732,-0.4732,0,0,0,0,0,0,0,-0.4739,-0.4739,-0.4741,-0.4738,-0.4737,-0.4736,-0.4736,-0.4739,-0.4735,-0.4734,-0.4733,-0.4733,-0.4733,-0.4733,-0.4733,-0.4739,-0.4732,-0.4732,-0.4732,-0.4732,-0.4753,-0.4753,0,0,0,0,0,0,-0.4739,-0.4739,-0.4741,-0.4741,-0.4737,-0.4736,-0.4736,-0.4737,-0.4735,-0.4735,-0.4734,-0.4733,-0.4733,-0.4733,-0.4733,-0.4744,-0.4732,-0.4732,-0.4733,-0.4753,-0.4753,-0.4753,0,0,0,0,0,0,-0.4739,-0.4739,-0.4741,-0.474,-0.474,-0.4737,-0.4738,-0.4737,-0.4737,-0.4735,-0.4734,-0.4735,-0.4733,-0.4733,-0.4738,-0.4744,-0.4733,-0.4733,-0.4752,-0.4753,-0.4753,-0.4764,0,0,0,0,0,0,-0.4739,-0.4739,-0.4742,-0.474,-0.474,-0.4745,-0.4738,-0.4737,-0.4738,-0.4737,-0.4736,-0.4735,-0.4732,-0.4738,-0.4738,-0.4744,-0.4733,-0.4752,-0.4752,-0.4753,-0.4763,-0.4765,-0.4766,0,0,0,0,0,-0.4739,-0.4744,-0.4742,-0.4742,-0.4743,-0.4746,-0.4746,-0.4742,-0.4738,-0.4741,-0.474,-0.4735,-0.4743,-0.4738,-0.4739,-0.4744,-0.4751,-0.4752,-0.4753,-0.4762,-0.4764,-0.4766,0,0,0,0,0,0,-0.4745,-0.4743,-0.4741,-0.4745,-0.4746,-0.4744,-0.4747,-0.4744,-0.4746,-0.4745,-0.4741,-0.474,-0.4747,-0.4746,-0.4741,-0.4753,-0.4746,-0.4747,-0.4753,-0.4755,-0.4757,-0.4757,-0.4733,0,0,0,0,0,-0.4748,-0.475,-0.4748,-0.4752,-0.4753,-0.475,-0.4751,-0.4749,-0.4749,-0.4749,-0.4748,-0.4749,-0.4752,-0.4753,-0.4755,-0.4763,-0.4764,-0.4767,-0.4769,-0.477,-0.4771,-0.4778,-0.478,-0.4756,-0.4756,-0.4756,0,0,-0.4751,-0.4751,-0.4752,-0.4754,-0.4754,-0.4757,-0.475,-0.4753,-0.4756,-0.4749,-0.4755,-0.4754,-0.4755,-0.4762,-0.4765,-0.4762,-0.4778,-0.4771,-0.4772,-0.4773,-0.4779,-0.4781,-0.4783,-0.4757,-0.4757,-0.4757,0,0,-0.4761,-0.476,-0.4764,-0.4765,-0.4766,-0.4764,-0.4766,-0.4765,-0.4765,-0.477,-0.4766,-0.477,-0.4774,-0.4775,-0.4776,-0.479,-0.4786,-0.479,-0.4799,-0.4805,-0.4807,-0.4809,-0.4815,-0.4818,-0.4791,-0.4791,-0.4791,0,-0.4766,-0.477,-0.4767,-0.4771,-0.4773,-0.4768,-0.4774,-0.4775,-0.4776,-0.4777,-0.4774,-0.4781,-0.478,-0.4789,-0.4793,-0.4793,-0.4796,-0.479,-0.4807,-0.4809,-0.481,-0.4817,-0.4819,-0.4792,-0.4792,-0.4792,-0.4792,0,-0.4777,-0.4781,-0.4785,-0.4787,-0.4789,-0.4794,-0.4792,-0.4795,-0.4793,-0.4793,-0.48,-0.48,-0.4803,-0.4805,-0.4802,-0.4814,-0.4812,-0.4808,-0.4801,-0.4813,-0.4819,-0.4821,-0.4793,-0.4793,-0.4792,-0.4792,0,0,-0.4789,-0.4792,-0.4793,-0.4795,-0.4797,-0.48,-0.4806,-0.481,-0.4813,-0.4814,-0.482,-0.4825,-0.4822,-0.4824,-0.4822,-0.4827,-0.484,-0.4822,-0.4822,-0.4827,-0.4855,-0.486,-0.4862,-0.4838,-0.4838,-0.4839,-0.4856,0,-0.4799,-0.4809,-0.4807,-0.4817,-0.4822,-0.4818,-0.4824,-0.4826,-0.4826,-0.4831,-0.4831,-0.4836,-0.483,-0.4832,-0.4837,-0.4837,-0.4846,-0.4836,-0.4845,-0.4845,-0.4846,-0.4865,-0.4869,-0.4885,-0.4858,-0.4858,-0.4859,0,-0.4811,-0.4815,-0.4826,-0.483,-0.4831,-0.4836,-0.4841,-0.4845,-0.4848,-0.4848,-0.4852,-0.4849,-0.4857,-0.485,-0.4861,-0.4854,-0.4858,-0.4859,-0.4859,-0.4861,-0.4853,-0.4868,-0.489,-0.4893,-0.4862,-0.4862,-0.4861,0,-0.4821,-0.4828,-0.4836,-0.4838,-0.4842,-0.4846,-0.4848,-0.4851,-0.4855,-0.4859,-0.4862,-0.4867,-0.487,-0.4874,-0.4874,-0.4869,-0.4886,-0.4879,-0.4888,-0.4888,-0.4892,-0.4891,-0.4915,-0.4892,-0.4892,-0.4892,-0.4892,0,-0.4833,-0.484,-0.4841,-0.4846,-0.4855,-0.4854,-0.4863,-0.4864,-0.4868,-0.4874,-0.4871,-0.4877,-0.4876,-0.4882,-0.4882,-0.4893,-0.4894,-0.4895,-0.4895,-0.4896,-0.4896,-0.4899,-0.4898,-0.4892,-0.4892,-0.4892,-0.4892,0,-0.4844,-0.4845,-0.4854,-0.4859,-0.486,-0.4866,-0.487,-0.4876,-0.4877,-0.4885,-0.4887,-0.4888,-0.4896,-0.4897,-0.4905,-0.4905,-0.4918,-0.4916,-0.4917,-0.4918,-0.4927,-0.4927,-0.4954,-0.4959,-0.4931,-0.4932,-0.4932,0,-0.4852,-0.4858,-0.4863,-0.4868,-0.487,-0.4877,-0.4881,-0.4881,-0.4886,-0.4892,-0.4898,-0.4905,-0.4911,-0.4924,-0.4926,-0.4934,-0.4933,-0.4942,-0.4934,-0.4935,-0.4935,-0.4935,-0.4937,-0.4944,-0.4944,-0.4944,-0.4944,0,-0.4866,-0.4868,-0.4874,-0.4881,-0.4886,-0.4892,-0.4897,-0.4901,-0.4902,-0.4908,-0.4916,-0.4921,-0.4931,-0.494,-0.4947,-0.495,-0.4948,-0.4947,-0.495,-0.4951,-0.4952,-0.4954,-0.4923,-0.4947,-0.4946,-0.4946,-0.4946,-0.4946,-0.4877,-0.4883,-0.4889,-0.4897,-0.4901,-0.4907,-0.4914,-0.4917,-0.4924,-0.4932,-0.4932,-0.4942,-0.4948,-0.4959,-0.4962,-0.4971,-0.4968,-0.4971,-0.4972,-0.4973,-0.4975,-0.4951,-0.4972,-0.4972,-0.4972,-0.4972,-0.4971,0,-0.4893,-0.4897,-0.4904,-0.4913,-0.492,-0.4918,-0.4925,-0.4931,-0.494,-0.4946,-0.4953,-0.4964,-0.4973,-0.4977,-0.4986,-0.4992,-0.4992,-0.4995,-0.4995,-0.4996,-0.4976,-0.4974,-0.4995,-0.4995,-0.4995,-0.4995,-0.4995,-0.4995,-0.4901,-0.4912,-0.4915,-0.4929,-0.4933,-0.4944,-0.4948,-0.4954,-0.4959,-0.4972,-0.498,-0.4983,-0.4989,-0.4999,-0.5008,-0.5009,-0.5014,-0.5017,-0.5018,-0.5,-0.4997,-0.4995,-0.4993,-0.5018,-0.5018,-0.5037,-0.5038,-0.5038]}]]